Wind_Speed
25 27 29 33 34 35 39 36 35 34 35 35 36 38 48 58 62 61 67 69 71 66 63 76 71 73 77 78 81 83 83 85 86 87 90 90 88 75 71 70 70 64 55
30 32 35 36 38 38 39 37 37 38 38 43 46 51 57 61 62 60 63 67 66 65 73 73 75 79 82 81 86 86 86 87 89 90 87 83 76 71 68 69 67 59 51
34 35 36 38 39 41 40 38 40 42 46 48 46 53 57 56 59 62 65 65 61 68 74 75 80 81 81 89 87 86 87 90 91 89 83 75 69 69 68 69 62 53 48
36 37 38 39 40 40 41 41 42 44 46 48 49 52 54 57 60 63 65 63 68 70 73 76 78 86 86 85 86 87 89 90 88 83 77 69 68 68 69 66 55 49 45
37 37 38 38 38 38 39 41 43 44 46 49 51 54 57 59 61 63 64 66 68 71 75 79 80 81 82 84 86 88 91 89 84 76 70 67 67 68 68 61 50 45 42
35 36 35 36 36 38 40 43 44 46 50 53 54 56 58 61 62 64 65 66 69 73 76 78 80 82 83 85 88 89 88 83 77 71 68 68 68 68 63 53 46 42 38
33 34 35 37 38 41 43 46 48 50 53 56 57 58 60 62 64 64 66 68 71 74 77 79 80 83 86 88 90 90 86 78 71 68 70 68 68 64 57 46 42 39 36
33 35 37 39 42 43 45 48 51 54 56 57 58 59 61 63 63 66 69 71 74 76 78 80 83 85 89 91 92 90 83 74 72 70 70 67 64 57 49 43 39 36 33
35 37 39 41 43 46 49 52 54 56 57 58 59 61 60 62 65 69 72 74 76 77 79 82 85 89 91 92 91 85 78 75 74 70 65 60 55 49 43 39 37 34 31
36 39 42 44 47 51 53 55 56 57 58 59 59 57 59 62 67 71 74 77 77 79 81 84 89 92 93 89 84 80 75 67 67 63 56 53 48 42 37 36 34 31 30
40 42 45 48 52 54 56 57 57 58 59 57 56 59 63 67 70 74 77 79 80 82 86 88 92 95 90 81 79 73 67 62 59 55 51 47 42 36 33 32 32 30 29
44 47 49 52 55 57 58 58 59 59 56 56 58 63 67 71 75 77 77 79 83 87 90 93 93 86 82 75 71 68 62 55 50 48 45 42 37 34 32 31 30 28 28
49 51 54 56 58 58 58 59 61 59 57 59 63 68 73 78 80 81 80 83 86 91 94 93 88 82 74 69 65 58 51 49 43 41 40 38 37 34 30 30 29 27 26
53 55 57 58 59 59 60 63 62 59 61 64 68 74 78 82 84 84 86 88 90 93 92 88 82 76 69 63 54 49 43 43 43 39 37 36 36 32 29 29 26 26 25
57 59 60 61 61 62 64 63 60 61 65 69 73 78 83 85 86 88 90 92 94 92 89 81 75 72 62 55 51 48 42 40 39 37 37 36 34 30 28 26 24 24 23
60 61 62 62 62 65 63 61 63 67 71 75 80 84 86 88 88 89 91 92 90 87 79 76 72 63 51 48 48 45 40 39 38 35 33 33 28 27 26 24 22 22 23
62 63 62 63 64 63 62 64 68 71 75 80 85 86 85 86 87 89 89 88 85 78 75 71 62 49 44 44 44 41 40 37 35 33 33 31 27 25 24 22 22 22 22
63 63 64 64 62 63 65 68 72 76 80 84 85 83 84 87 88 88 86 82 77 76 71 65 53 45 42 42 42 40 36 35 33 32 30 26 24 25 24 22 22 21 21
63 65 65 64 64 66 69 73 77 80 83 83 83 83 84 84 83 82 79 76 74 70 65 56 49 44 42 41 40 39 35 32 30 28 26 23 23 23 23 22 21 20 20
66 65 65 66 68 71 74 78 81 82 82 82 82 83 81 78 77 73 72 72 71 66 60 51 46 44 43 41 38 34 32 31 27 24 23 22 23 24 23 22 20 19 19
68 68 68 70 72 75 78 80 82 81 81 82 82 79 76 76 71 69 70 71 68 60 55 47 45 43 42 39 35 30 30 28 26 23 22 22 24 26 24 22 19 19 18
70 70 72 74 76 78 80 82 80 80 81 80 76 73 74 71 67 68 70 71 65 57 51 45 44 42 41 37 32 30 29 29 28 23 22 23 24 26 24 22 20 19 18
72 73 75 76 78 81 81 79 79 80 78 73 71 72 71 68 67 69 71 69 61 55 48 44 42 41 39 34 31 31 31 30 26 24 23 24 25 27 25 24 22 19 18
75 76 77 80 81 80 80 80 80 75 69 69 72 72 69 66 67 70 70 65 57 51 46 43 42 40 36 32 29 34 34 32 26 25 23 27 25 25 26 24 22 21 19
78 80 81 82 80 80 80 78 72 68 69 72 72 71 68 66 67 69 67 60 53 47 44 42 41 38 35 31 25 35 33 33 29 29 29 26 27 26 25 25 23 22 21
81 83 84 82 81 80 76 70 69 71 72 72 71 69 66 67 68 66 61 54 49 44 42 41 39 37 33 28 23 33 37 35 28 27 31 24 25 26 27 26 25 24 23
Wind_Direction
272 280 286 290 289 288 288 288 290 291 292 295 287 277 276 285 290 291 291 295 300 297 292 301 302 302 302 302 302 308 309 310 311 311 312 313 314 313 311 311 312 311 306
280 282 283 287 290 291 289 289 289 293 286 283 280 280 286 289 291 291 294 297 299 293 297 300 301 301 300 298 308 308 310 311 311 312 313 315 314 312 311 312 313 309 305
280 283 286 288 291 290 292 290 291 290 293 288 289 283 290 291 295 296 297 298 291 291 298 300 298 298 297 305 307 308 310 311 311 312 314 313 311 311 311 313 311 306 304
278 280 283 286 288 289 291 292 292 293 293 293 289 288 293 295 296 296 297 296 297 299 300 296 297 299 302 305 307 309 309 309 311 313 313 311 310 310 312 312 308 304 303
274 278 282 284 286 289 292 293 294 295 293 295 296 297 297 297 297 296 297 298 298 295 296 297 299 301 304 307 308 309 308 309 311 311 309 308 310 311 311 310 305 302 301
276 279 282 286 291 295 298 299 299 299 298 298 299 297 297 297 298 298 297 297 298 299 300 300 302 304 305 307 307 307 307 309 309 308 307 308 309 309 308 304 301 300 299
283 286 291 295 297 299 300 301 301 300 299 299 298 298 298 299 300 299 300 301 302 302 301 303 304 306 307 307 306 306 307 307 305 304 304 305 306 306 304 299 297 298 296
287 292 295 296 298 299 300 299 299 299 299 299 299 300 301 301 301 303 304 304 304 303 304 305 306 307 307 306 306 306 306 304 303 300 300 302 302 302 298 294 294 294 293
290 292 294 296 297 298 299 300 300 300 300 300 301 301 302 305 307 307 307 307 307 307 307 307 307 307 307 305 306 305 305 304 300 298 299 299 299 296 293 292 291 291 289
291 294 296 297 299 300 301 301 301 302 301 301 302 304 307 310 311 311 311 310 308 307 309 309 308 306 306 307 305 304 303 302 297 298 296 297 295 291 289 288 287 287 287
295 297 298 299 300 301 301 301 301 301 302 302 303 307 311 314 314 314 311 309 309 311 310 309 307 306 307 306 304 303 302 298 297 295 295 294 291 287 286 284 284 282 283
297 297 298 299 300 300 301 302 302 303 301 302 306 311 314 314 314 314 313 311 310 310 309 309 308 309 308 306 304 303 297 294 294 294 291 290 286 285 283 283 281 279 282
298 298 298 299 300 302 302 303 303 302 300 302 307 310 313 315 316 315 314 313 311 310 310 310 310 310 308 307 306 304 299 293 291 289 289 283 277 280 278 279 276 276 280
297 298 299 300 302 303 304 303 303 300 301 304 308 311 313 315 315 315 315 313 312 311 311 311 310 309 307 306 303 306 297 286 290 290 285 278 275 275 273 274 271 274 279
298 301 302 303 304 304 304 303 302 301 304 307 309 311 313 314 315 315 314 314 314 313 312 312 312 309 305 301 299 301 296 287 285 283 282 278 275 266 267 267 267 271 277
301 302 302 304 304 305 303 302 304 305 306 307 308 310 312 314 315 315 315 315 314 315 315 314 313 310 303 300 299 297 293 288 283 282 279 278 271 260 262 260 262 267 278
300 301 302 304 304 304 305 306 307 306 306 306 307 310 313 314 314 314 315 315 316 316 317 315 313 308 303 300 298 293 288 285 282 281 276 274 261 253 253 252 256 266 278
300 302 303 304 305 305 306 306 307 307 306 306 309 312 314 314 315 316 316 317 317 318 317 316 312 307 304 300 297 291 285 282 279 276 275 267 250 246 242 245 253 266 276
301 302 303 303 304 304 305 305 305 305 306 309 311 313 314 315 316 316 317 317 318 317 315 313 309 306 304 301 296 288 282 278 277 275 269 256 240 237 233 240 251 265 273
300 301 302 302 302 302 303 304 305 306 309 311 312 312 313 314 315 315 316 318 317 316 314 311 307 307 306 302 293 283 273 273 273 269 260 245 236 229 228 235 248 263 269
299 300 300 300 301 302 303 304 306 308 310 311 312 313 313 315 315 315 318 320 318 314 313 309 307 307 307 302 291 270 263 264 263 259 250 238 231 224 226 232 247 259 264
298 298 298 299 300 302 304 306 307 308 310 311 311 311 314 314 313 316 320 321 318 314 312 309 307 308 308 301 284 265 252 250 255 252 243 233 227 222 226 229 243 253 256
295 296 297 299 302 304 306 306 308 309 310 310 310 312 313 312 313 317 321 320 316 313 311 309 309 310 308 299 276 251 243 244 245 243 233 227 227 223 227 229 238 247 250
293 295 298 301 304 305 306 307 310 310 308 309 311 312 312 311 313 317 320 317 314 312 310 310 310 311 307 300 277 243 241 242 236 226 223 222 225 224 227 230 237 242 245
294 297 299 303 304 305 307 309 309 307 308 310 311 312 311 311 314 318 318 315 313 311 310 310 311 310 307 301 279 231 232 245 238 227 216 223 224 224 227 229 234 239 241
296 297 301 302 304 306 308 307 307 308 309 310 311 311 310 312 316 317 315 313 312 310 310 311 311 310 305 300 276 231 229 241 243 229 213 212 218 220 223 227 231 235 239
Height
5742 5741 5740 5737 5734 5731 5728 5725 5722 5719 5716 5713 5712 5708 5703 5697 5690 5684 5675 5668 5658 5651 5643 5636 5628 5619 5610 5601 5592 5582 5572 5561 5553 5545 5525 5513 5504 5495 5482 5473 5464 5455 5447
5736 5735 5733 5730 5727 5724 5720 5716 5713 5709 5707 5703 5700 5695 5689 5683 5677 5670 5662 5653 5645 5639 5631 5622 5613 5603 5595 5584 5573 5564 5554 5543 5531 5522 5510 5496 5484 5476 5467 5459 5449 5440 5433
5729 5727 5724 5721 5718 5714 5711 5707 5703 5700 5696 5691 5688 5682 5676 5669 5661 5653 5646 5639 5632 5624 5616 5607 5598 5587 5577 5566 5556 5547 5536 5524 5512 5500 5492 5480 5471 5461 5454 5444 5435 5427 5420
5720 5718 5716 5713 5709 5705 5702 5698 5694 5689 5684 5679 5675 5669 5661 5654 5647 5640 5632 5625 5618 5610 5601 5591 5582 5572 5561 5550 5539 5528 5517 5506 5493 5481 5473 5465 5456 5448 5438 5430 5423 5415 5409
5711 5709 5707 5703 5700 5696 5692 5688 5683 5678 5672 5667 5660 5654 5647 5640 5633 5625 5618 5611 5603 5596 5586 5576 5566 5555 5545 5534 5522 5511 5495 5485 5476 5466 5459 5451 5443 5434 5424 5416 5410 5405 5400
5701 5699 5696 5693 5689 5685 5680 5675 5670 5665 5658 5652 5647 5640 5634 5626 5618 5611 5603 5597 5588 5579 5569 5558 5547 5537 5528 5517 5504 5493 5482 5468 5459 5450 5443 5435 5428 5419 5412 5405 5399 5395 5391
5690 5688 5685 5681 5677 5673 5668 5663 5657 5652 5646 5640 5633 5626 5618 5610 5603 5595 5587 5580 5572 5562 5551 5540 5530 5519 5506 5495 5482 5474 5463 5454 5445 5436 5427 5422 5413 5405 5399 5393 5389 5385 5381
5680 5677 5673 5670 5665 5661 5657 5651 5645 5639 5632 5625 5618 5611 5603 5594 5586 5578 5569 5562 5553 5544 5533 5522 5511 5501 5487 5471 5459 5450 5443 5435 5428 5422 5412 5406 5398 5392 5386 5382 5378 5375 5372
5670 5667 5663 5659 5655 5650 5645 5639 5632 5625 5618 5610 5603 5596 5588 5579 5570 5560 5552 5544 5535 5526 5516 5505 5492 5479 5467 5453 5440 5429 5424 5416 5404 5399 5394 5390 5384 5379 5374 5371 5368 5365 5363
5660 5657 5652 5647 5642 5637 5631 5625 5618 5610 5603 5596 5588 5580 5573 5565 5555 5544 5532 5523 5517 5509 5500 5486 5472 5458 5447 5431 5418 5410 5402 5397 5385 5381 5380 5374 5370 5367 5364 5361 5358 5356 5354
5649 5645 5640 5635 5629 5623 5616 5609 5603 5595 5588 5580 5574 5565 5557 5548 5538 5528 5516 5505 5494 5487 5476 5465 5453 5437 5424 5414 5399 5390 5384 5377 5370 5366 5363 5360 5357 5355 5353 5352 5348 5347 5346
5637 5632 5627 5621 5615 5608 5601 5594 5588 5580 5573 5566 5558 5550 5541 5532 5522 5512 5500 5486 5472 5460 5451 5440 5427 5415 5401 5390 5379 5372 5363 5359 5354 5351 5350 5347 5345 5344 5343 5341 5340 5338 5337
5624 5619 5613 5607 5600 5593 5586 5579 5572 5565 5558 5551 5543 5534 5525 5514 5504 5493 5482 5470 5456 5441 5427 5413 5401 5390 5379 5370 5361 5351 5345 5342 5341 5339 5337 5336 5335 5333 5333 5332 5331 5330 5329
5610 5605 5598 5592 5585 5578 5571 5563 5556 5548 5542 5535 5526 5516 5506 5496 5484 5473 5462 5450 5437 5422 5407 5394 5380 5369 5361 5352 5345 5340 5334 5330 5328 5327 5325 5324 5324 5323 5323 5323 5322 5321 5321
5596 5590 5583 5576 5569 5562 5554 5546 5538 5532 5525 5516 5508 5498 5488 5477 5465 5452 5440 5427 5412 5399 5385 5372 5360 5348 5340 5334 5330 5326 5321 5318 5316 5315 5314 5313 5313 5313 5313 5314 5314 5313 5313
5580 5573 5566 5559 5552 5545 5537 5531 5523 5512 5505 5497 5489 5479 5468 5456 5445 5432 5418 5403 5390 5376 5364 5350 5340 5330 5323 5318 5315 5311 5308 5305 5304 5304 5303 5302 5303 5303 5304 5305 5306 5306 5306
5565 5558 5550 5543 5536 5528 5521 5513 5504 5497 5487 5478 5468 5458 5446 5436 5424 5412 5399 5384 5368 5357 5346 5334 5323 5316 5311 5305 5301 5298 5295 5294 5293 5292 5291 5292 5293 5294 5296 5298 5299 5299 5299
5548 5542 5535 5527 5519 5512 5505 5497 5488 5479 5469 5459 5449 5438 5425 5412 5400 5388 5377 5365 5353 5338 5326 5317 5310 5303 5298 5294 5289 5286 5285 5283 5282 5281 5281 5282 5283 5285 5288 5290 5292 5293 5293
5532 5525 5518 5511 5504 5496 5488 5480 5471 5461 5451 5441 5429 5418 5407 5394 5381 5369 5356 5346 5336 5325 5314 5304 5296 5291 5286 5281 5276 5274 5274 5273 5272 5272 5272 5273 5275 5278 5281 5283 5285 5286 5286
5515 5508 5501 5494 5487 5479 5471 5462 5452 5442 5432 5421 5410 5399 5389 5378 5366 5355 5343 5331 5320 5309 5300 5291 5284 5278 5272 5268 5264 5262 5262 5262 5262 5262 5263 5265 5268 5270 5274 5276 5279 5280 5280
5499 5491 5483 5476 5468 5461 5452 5444 5434 5423 5413 5402 5391 5380 5370 5360 5350 5339 5329 5317 5306 5295 5286 5278 5272 5266 5260 5255 5251 5250 5251 5252 5253 5254 5255 5258 5260 5264 5267 5270 5272 5273 5274
5480 5473 5465 5458 5450 5442 5433 5424 5414 5404 5394 5384 5373 5363 5353 5342 5332 5323 5312 5301 5290 5280 5273 5266 5259 5253 5247 5242 5239 5239 5241 5242 5244 5246 5248 5250 5253 5257 5260 5264 5266 5268 5268
5461 5454 5446 5438 5430 5422 5414 5404 5394 5384 5375 5365 5356 5346 5336 5327 5317 5308 5297 5285 5275 5266 5258 5253 5247 5240 5235 5230 5227 5228 5230 5233 5236 5238 5241 5243 5246 5250 5254 5257 5259 5262 5263
5442 5435 5427 5419 5411 5402 5393 5383 5374 5365 5356 5347 5338 5328 5319 5310 5301 5292 5281 5270 5260 5252 5245 5240 5234 5228 5223 5219 5216 5217 5220 5223 5227 5230 5233 5236 5240 5244 5247 5250 5253 5256 5257
5423 5416 5407 5399 5391 5381 5372 5363 5355 5347 5339 5330 5320 5311 5302 5293 5285 5275 5265 5255 5246 5239 5233 5227 5222 5216 5211 5207 5204 5206 5210 5213 5218 5221 5225 5229 5233 5237 5240 5244 5247 5249 5251
5404 5395 5387 5378 5370 5362 5354 5345 5337 5329 5321 5311 5303 5294 5285 5277 5268 5258 5249 5241 5233 5226 5220 5215 5210 5205 5200 5196 5194 5196 5201 5205 5209 5213 5218 5222 5226 5230 5233 5237 5240 5243 5245